COSMOS 2491 DEB, 57567

Orbit data source: Space-Track

COSMOS 2491 DEB, 57567 is space debris in LEO originally from a launch on Wed, 25 Dec 2013 UTC launched from the Plesetsk Missile And Space Complex (PKMTR). Debris objects in space refer to the collection of defunct objects orbiting the Earth. Examples of debris include non-operational satellites, rocket bodies, and fragments generated from explosions, collisions, or faulty payload assembly.

Loading next visibility...
Identifier
57567, 2013-076BE
Orbit
LEO
Country
Flag of CISCIS
Related business
Manufacturer
TsNIIKhM
Mission
Spacecraft
Bus & Motor
Unknown
Mass
Unknown
Launch date (UTC)
2013-12-25 (12 years ago)
Launch vehicle
Unknown
Launch site
Plesetsk Missile And Space Complex (PKMTR)
Object type
Payload
Rocket body
Debris
Shape & HBR
Unknown shape, 0.1 m
Radar Cross Section
Small (<0.1 m²)

Expand to show TLE details & history
Last TLE update: 2 weeks ago

TLE from 2 weeks ago
0 COSMOS 2491 DEB
1 57567U 13076BE  25274.80983135  .00004161  00000-0  23851-1 0  9996
2 57567  82.4657 308.4801 0133961 108.7452 252.8227 12.57668825109837
Epoch: 2025-10-01T19:26Z
TLE epoch observation values (Epoch: 2025-10-01T19:26:09.428Z)
Latitude
-0.00001°
Longitude
6.16131°
Altitude
1,467.481 km
Speed
7.114 km/s
True Right ascension
20h 33m 55s
True Declination
0° 00' 00"
Sunlit
Object was in daylight at epoch
Visualization orbit readout
Latitude
Unknown
Longitude
Unknown
Altitude
Unknown
Speed
Unknown
Apparent Right ascension
Unknown
Apparent Declination
Unknown
Sunlit
N/A
Visualization observer readout
Local Sidereal Time
19:04:51
Azimuth
Unknown
Elevation
Unknown
Doppler factor
Unknown
Orbital elements
Apogee altitude
1,534.51 km
Perigee altitude
1,325.315 km
Semi-major axis
7,808.049 km
Eccentricity
0.0134
Inclination
82.4657°
RAAN
308.4801°
Arg. of periapsis
108.7452°
True anomaly
251.36347°
Mean anomaly
252.8227°
Eccentric anomaly
252.09234°
Mean motion
3.14579 °/min
Orbital period
114.44 mins
BSTAR
0.023851
Loading maneuver chart data...
Computing Atmospheric mass density...
Loading historical data...
Loading historical data...
Loading historical data...
Loading historical data...
Loading historical data...
Loading historical data...
Loading historical data...

Documentation

Showing up to 5 results
|